GW4483 Weather Reports


time (UTC)temp
C
wind
direction
speed
KPH
gust
KPH
rain 1hr
cm
rain 24hr
cm
rain mn
cm
humidity
%
barometer
mb
20260507110055 11 0 0.0 0.0 0.00 0.00 0.00 90 1015.9
20260507104550 12 0 0.0 0.0 0.00 0.00 0.00 89 1016.1
20260507103053 12 0 0.0 3.2 0.00 0.00 0.00 89 1016.2
20260507101556 12 0 0.0 3.2 0.00 0.00 0.00 88 1016.2
20260507100050 12 352 1.6 3.2 0.00 0.00 0.00 89 1016.1
20260507094553 12 352 0.0 3.2 0.00 0.00 0.00 88 1016.5
20260507093054 12 348 0.0 4.8 0.00 0.00 0.00 89 1016.6
20260507091551 12 319 0.0 3.2 0.00 0.00 0.00 88 1016.6
20260507090051 12 319 0.0 3.2 0.00 0.00 0.00 90 1016.8
20260507084553 12 0 0.0 1.6 0.00 0.00 0.00 87 1017.0
20260507083052 13 0 0.0 3.2 0.00 0.00 0.00 88 1017.2
20260507081552 12 0 0.0 1.6 0.00 0.00 0.00 87 1017.3
20260507080116 13 0 0.0 3.2 0.00 0.00 0.00 86 1017.5
20260507074552 13 0 0.0 4.8 0.00 0.00 0.00 87 1017.4
20260507073053 13 360 1.6 4.8 0.00 0.00 0.00 88 1017.5
20260507071610 13 181 0.0 3.2 0.00 0.00 0.00 88 1017.4
20260507070052 13 0 0.0 3.2 0.00 0.00 0.00 87 1017.5
20260507064557 13 181 1.6 3.2 0.00 0.00 0.00 87 1017.7
20260507063056 14 0 0.0 1.6 0.00 0.00 0.00 86 1017.8
20260507061601 14 0 0.0 0.0 0.00 0.00 0.00 85 1017.6
20260507060056 14 181 0.0 3.2 0.00 0.00 0.00 85 1017.7
20260507054550 15 0 0.0 1.6 0.00 0.00 0.00 84 1017.7
20260507053120 15 0 0.0 3.2 0.00 0.00 0.00 83 1017.7
20260507051600 15 181 1.6 3.2 0.00 0.00 0.00 83 1017.8
20260507050053 15 181 1.6 3.2 0.00 0.00 0.00 82 1017.6
20260507044555 15 181 1.6 4.8 0.00 0.00 0.00 81 1017.5
20260507043054 16 0 0.0 6.4 0.00 0.00 0.00 81 1017.4
20260507041555 16 182 1.6 8.0 0.00 0.00 0.00 80 1017.5
20260507040052 16 161 0.0 6.4 0.00 0.00 0.00 78 1017.3
20260507034552 16 184 3.2 8.0 0.00 0.00 0.00 76 1017.1
20260507033053 16 0 3.2 9.7 0.00 0.00 0.00 74 1016.9
20260507031556 17 186 1.6 9.7 0.00 0.00 0.00 73 1016.7
20260507030057 17 201 6.4 14.5 0.00 0.00 0.00 75 1016.6
20260507024601 17 0 4.8 17.7 0.00 0.00 0.00 73 1016.5
20260507023051 18 187 4.8 14.5 0.00 0.00 0.00 72 1016.4
20260507021556 18 167 3.2 12.9 0.00 0.00 0.00 69 1016.3
20260507020050 19 180 4.8 16.1 0.00 0.00 0.00 68 1016.2
20260507014601 19 169 6.4 16.1 0.00 0.00 0.00 67 1016.1
20260507013051 20 157 4.8 14.5 0.00 0.00 0.00 65 1016.0
20260507011558 20 158 6.4 16.1 0.00 0.00 0.00 65 1016.1
20260507004605 21 171 4.8 14.5 0.00 0.00 0.00 63 1016.0
20260507003055 21 199 8.0 20.9 0.00 0.00 0.00 62 1015.8
20260507001555 21 0 4.8 20.9 0.00 0.00 0.00 63 1015.8
20260507000055 21 169 8.0 19.3 0.00 0.00 0.00 63 1015.8
20260506234553 21 213 6.4 22.5 0.00 0.00 0.00 62 1015.7
20260506233057 21 208 8.0 19.3 0.00 0.00 0.00 62 1015.7
20260506231601 21 127 8.0 19.3 0.00 0.00 0.00 61 1015.7
20260506230056 21 147 11.3 22.5 0.00 0.00 0.00 62 1015.7
20260506224554 21 205 9.7 20.9 0.00 0.00 0.00 61 1015.8
20260506223053 21 153 9.7 20.9 0.00 0.00 0.00 62 1016.0
20260506221555 20 116 11.3 24.1 0.00 0.00 0.00 64 1016.0
20260506220053 20 131 11.3 25.7 0.00 0.00 0.00 64 1016.2
20260506214602 20 63 8.0 22.5 0.00 0.00 0.00 64 1016.4
20260506213056 20 225 8.0 24.1 0.00 0.00 0.00 64 1016.6
20260506211604 20 223 11.3 24.1 0.00 0.00 0.00 63 1016.6
20260506210057 21 204 8.0 24.1 0.00 0.00 0.00 63 1016.8
20260506204600 20 165 9.7 20.9 0.00 0.00 0.00 63 1016.8
20260506203055 21 216 11.3 20.9 0.00 0.00 0.00 62 1016.8
20260506201551 20 171 11.3 25.7 0.00 0.00 0.00 62 1017.0
20260506200101 21 169 6.4 20.9 0.00 0.00 0.00 63 1017.2
20260506194602 20 161 8.0 22.5 0.00 0.00 0.00 63 1017.3
20260506193056 20 109 6.4 19.3 0.00 0.00 0.00 63 1017.4
20260506191605 20 178 6.4 19.3 0.00 0.00 0.00 61 1017.5
20260506190054 20 148 6.4 19.3 0.00 0.00 0.00 61 1017.5
20260506184554 20 171 6.4 17.7 0.00 0.00 0.00 58 1017.6
20260506183056 20 209 9.7 20.9 0.00 0.00 0.00 56 1017.8
20260506181559 20 221 4.8 14.5 0.00 0.00 0.00 59 1017.9
20260506180113 19 267 8.0 17.7 0.00 0.00 0.00 60 1018.1
20260506174553 18 235 6.4 14.5 0.00 0.03 0.00 61 1018.3
20260506173124 18 211 4.8 24.1 0.00 0.03 0.00 62 1018.4
20260506171603 18 217 4.8 14.5 0.00 0.03 0.00 62 1018.4
20260506170053 17 265 9.7 14.5 0.00 0.03 0.00 64 1018.4
20260506164551 17 245 8.0 16.1 0.00 0.03 0.00 65 1018.3
20260506163100 17 218 6.4 12.9 0.00 0.03 0.00 65 1018.2
20260506161557 17 151 3.2 12.9 0.00 0.03 0.00 69 1018.1
20260506160054 16 198 3.2 9.7 0.00 0.03 0.00 69 1018.3
20260506154552 16 216 3.2 12.9 0.00 0.03 0.00 70 1018.3
20260506153059 16 0 4.8 11.3 0.00 0.03 0.00 70 1018.4
20260506151558 16 279 3.2 11.3 0.00 0.03 0.00 72 1018.4
20260506150057 16 173 1.6 6.4 0.00 0.03 0.00 72 1018.4
20260506144606 15 0 0.0 4.8 0.00 0.05 0.00 76 1018.3
20260506143103 14 352 1.6 4.8 0.00 0.05 0.00 79 1018.3
20260506141557 13 360 0.0 3.2 0.00 0.05 0.00 81 1018.3
20260506140145 12 360 1.6 3.2 0.00 0.05 0.00 86 1018.2
20260506134555 11 0 1.6 3.2 0.00 0.36 0.00 86 1018.1
20260506133101 11 360 1.6 3.2 0.00 0.36 0.00 86 1018.0
20260506131553 11 0 0.0 3.2 0.00 0.36 0.00 86 1017.9
20260506130057 11 360 0.0 3.2 0.00 0.36 0.00 86 1017.8
20260506124551 11 352 0.0 3.2 0.00 0.41 0.00 86 1017.6
20260506123054 11 360 0.0 4.8 0.00 0.41 0.00 86 1017.6
20260506121554 11 15 1.6 3.2 0.00 0.41 0.00 86 1017.5
20260506120053 11 15 1.6 4.8 0.00 0.41 0.00 86 1017.4
20260506114550 11 0 0.0 4.8 0.00 0.43 0.00 86 1017.4
20260506113059 11 350 1.6 4.8 0.00 0.43 0.00 86 1017.6
20260506111558 11 352 0.0 4.8 0.00 0.43 0.00 85 1017.5